Lafayette, LA

1:32 PM CST on December 06, 2016 (GMT -0600)
Lafayette Regional

Weather History for KLFT - August, 2015

Change the Weather History Date:

Thursday, August 20, 2015

  Actual Average Record
Temperature  
Mean Temperature 82 °F 84 °F  
Max Temperature 87 °F 93 °F 102 °F (1925)
Min Temperature 76 °F 75 °F 61 °F (1940)
Cooling Degree Days 17 19  
Month to date cooling degree days 423 380  
Year to date cooling degree days 2256 2064  
Since 1 June cooling degree days 1564 1450  
Growing Degree Days 32 (Base 50)    
Moisture  
Dew Point 74 °F    
Average Humidity 76    
Maximum Humidity 91    
Minimum Humidity 61    
Precipitation  
Precipitation 0.13 in 0.16 in 1.97 in (1956)
Month to date precipitation 2.42 2.99  
Year to date precipitation 42.66 38.99  
Sea Level Pressure  
Sea Level Pressure 29.95 in    
Wind  
Wind Speed 3 mph (SW)    
Max Wind Speed 10 mph    
Max Gust Speed 16 mph    
Visibility 10 miles    
Events Rain , Thunderstorm    
T = Trace of Precipitation, MM = Missing Value Source: NWS Daily Summary

Daily Weather History Graph

Daily Weather History Graph

Search for Another Location

Airport or City:

Trip Planner

Search our weather history database for the weather conditions in past years. The results will help you decide how hot, cold, wet, or windy it might be!

Date:

Astronomy

Aug. 20, 2015 Rise Set
Actual Time 6:37 AM CDT 7:44 PM CDT
Civil Twilight 6:12 AM CDT 8:09 PM CDT
Nautical Twilight 5:43 AM CDT 8:38 PM CDT
Astronomical Twilight 5:12 AM CDT 9:09 PM CDT
Moon 11:46 AM CDT (8/20) 11:15 PM CDT (8/20)
Length of Visible Light 13h 56m
Length of Day
13h 06m
Waxing Crescent, 30% of the Moon is Illuminated
Aug 20
Waxing Crescent
Aug 22
First Quarter
Aug 29
Full
Sep 5
Last Quarter
Sep 13
New

Hourly Weather History & Observations

Time (CDT) Temp. Heat Index Dew Point Humidity Pressure Visibility Wind Dir Wind Speed Gust Speed Precip Events Conditions
12:53 AM 79.0 °F - 73.9 °F 84% 29.92 in 10.0 mi SSE 5.8 mph - N/A   Clear
1:18 AM 79.0 °F - 73.9 °F 84% 29.94 in 10.0 mi SSE 5.8 mph - 0.00 in Thunderstorm Clear
1:53 AM 78.1 °F - 73.9 °F 87% 29.90 in 10.0 mi Variable 4.6 mph - 0.01 in Rain , Thunderstorm Light Rain
2:08 AM 78.1 °F - 73.9 °F 87% 29.89 in 10.0 mi ESE 6.9 mph - 0.00 in Rain Light Rain
2:53 AM 78.1 °F - 73.9 °F 87% 29.89 in 10.0 mi Calm Calm - 0.02 in   Mostly Cloudy
3:14 AM 78.1 °F - 73.9 °F 87% 29.91 in 10.0 mi South 8.1 mph - N/A Thunderstorm Thunderstorm
3:27 AM 78.1 °F - 75.0 °F 90% 29.90 in 10.0 mi South 5.8 mph - N/A Thunderstorm Thunderstorm
3:34 AM 78.1 °F - 75.0 °F 90% 29.90 in 10.0 mi Variable 4.6 mph - N/A   Mostly Cloudy
3:53 AM 78.1 °F - 75.0 °F 90% 29.90 in 10.0 mi South 4.6 mph - 0.00 in Rain Light Rain
4:23 AM 78.1 °F - 75.9 °F 93% 29.91 in 10.0 mi Variable 4.6 mph - 0.02 in Rain Light Rain
4:37 AM 79.0 °F - 75.9 °F 90% 29.91 in 10.0 mi Calm Calm - 0.03 in Rain Light Rain
4:53 AM 79.0 °F - 75.9 °F 90% 29.91 in 10.0 mi SSW 3.5 mph - 0.04 in Rain , Thunderstorm Light Rain
5:06 AM 79.0 °F - 75.9 °F 90% 29.92 in 10.0 mi Calm Calm - 0.01 in Rain , Thunderstorm Light Thunderstorms and Rain
5:13 AM 79.0 °F - 75.9 °F 90% 29.93 in 10.0 mi Calm Calm - 0.02 in Rain , Thunderstorm Light Thunderstorms and Rain
5:21 AM 79.0 °F - 75.9 °F 90% 29.94 in 10.0 mi WSW 4.6 mph - 0.03 in Rain , Thunderstorm Light Rain
5:34 AM 79.0 °F - 75.9 °F 90% 29.95 in 10.0 mi West 5.8 mph - 0.04 in Rain , Thunderstorm Light Thunderstorms and Rain
5:49 AM 78.8 °F - 75.2 °F 89% 29.95 in 10.0 mi SW 4.6 mph - 0.04 in Rain Light Rain
5:53 AM 79.0 °F - 75.9 °F 90% 29.95 in 10.0 mi SW 4.6 mph - 0.05 in Rain Light Rain
6:53 AM 78.1 °F - 75.9 °F 93% 29.96 in 10.0 mi Calm Calm - 0.01 in   Scattered Clouds
7:53 AM 78.1 °F - 73.0 °F 84% 29.97 in 10.0 mi West 3.5 mph - N/A   Overcast
8:53 AM 77.0 °F - 72.0 °F 84% 29.97 in 10.0 mi WSW 8.1 mph - N/A   Clear
9:53 AM 77.0 °F - 73.0 °F 88% 29.98 in 10.0 mi WSW 4.6 mph - N/A   Partly Cloudy
10:53 AM 79.0 °F - 73.0 °F 82% 29.99 in 10.0 mi North 8.1 mph - N/A   Scattered Clouds
11:53 AM 81.0 °F 84.9 °F 71.1 °F 72% 30.00 in 10.0 mi Calm Calm - N/A   Clear
12:53 PM 82.0 °F 86.7 °F 72.0 °F 71% 30.00 in 10.0 mi West 8.1 mph - N/A   Scattered Clouds
1:53 PM 84.0 °F 90.2 °F 73.0 °F 69% 29.99 in 10.0 mi Calm Calm - N/A   Partly Cloudy
2:53 PM 84.9 °F 91.4 °F 73.0 °F 67% 29.98 in 10.0 mi NE 5.8 mph - N/A   Partly Cloudy
3:53 PM 86.0 °F 92.2 °F 72.0 °F 63% 29.96 in 10.0 mi North 5.8 mph - N/A   Clear
4:53 PM 86.0 °F 91.5 °F 71.1 °F 61% 29.95 in 10.0 mi Variable 3.5 mph - N/A   Clear
5:53 PM 86.0 °F 91.5 °F 71.1 °F 61% 29.95 in 10.0 mi West 4.6 mph - N/A   Clear
6:53 PM 84.0 °F 89.6 °F 72.0 °F 67% 29.95 in 10.0 mi NNW 6.9 mph - N/A   Clear
7:53 PM 80.1 °F 85.1 °F 75.0 °F 85% 29.96 in 10.0 mi Calm Calm - N/A   Clear
8:53 PM 79.0 °F - 75.0 °F 88% 29.97 in 10.0 mi Calm Calm - N/A   Clear
9:53 PM 78.1 °F - 73.9 °F 87% 29.97 in 10.0 mi Calm Calm - N/A   Clear
10:53 PM 78.1 °F - 73.9 °F 87% 29.98 in 10.0 mi Calm Calm - N/A   Clear
11:53 PM 77.0 °F - 73.9 °F 90% 29.98 in 10.0 mi Calm Calm - N/A   Clear